CW8440 Weather Reports


Display with metric or nautical units.
time (UTC)temp
F
wind
direction
speed
MPH
gust
MPH
rain 1hr
in
rain 24hr
in
rain mn
in
humidity
%
barometer
mb
20210928075539 59 223 0.0 1.0 0.00 0.00 0.00 69 1007.6
20210928075045 59 223 0.0 1.0 0.00 0.00 0.00 69 1007.6
20210928074539 59 223 0.0 1.0 0.00 0.00 0.00 68 1007.7
20210928074040 59 223 0.0 1.0 0.00 0.00 0.00 68 1007.6
20210928073539 59 223 0.0 1.0 0.00 0.00 0.00 68 1007.6
20210928073039 59 223 0.0 1.0 0.00 0.00 0.00 68 1007.7
20210928072539 59 223 0.0 1.0 0.00 0.00 0.00 68 1007.5
20210928072039 59 223 0.0 1.0 0.00 0.00 0.00 68 1007.6
20210928071539 59 223 0.0 1.0 0.00 0.00 0.00 68 1007.6
20210928071040 59 223 1.0 1.0 0.00 0.00 0.00 68 1007.5
20210928070539 60 223 0.0 1.0 0.00 0.00 0.00 68 1007.6
20210928070040 60 223 0.0 2.0 0.00 0.00 0.00 68 1007.7
20210928065538 60 223 0.0 2.0 0.00 0.00 0.00 68 1007.6
20210928065038 60 223 0.0 2.0 0.00 0.00 0.00 68 1007.5
20210928064539 60 223 0.0 2.0 0.00 0.00 0.00 68 1007.5
20210928064039 60 223 0.0 2.0 0.00 0.00 0.00 68 1007.8
20210928063540 60 223 1.0 2.0 0.00 0.00 0.00 68 1007.8
20210928063037 60 223 1.0 2.0 0.00 0.00 0.00 68 1007.7
20210928062537 60 223 0.0 4.0 0.00 0.00 0.00 68 1007.7
20210928062036 60 223 1.0 4.0 0.00 0.00 0.00 68 1007.7
20210928061535 60 223 1.0 4.0 0.00 0.00 0.00 68 1007.7
20210928061032 60 223 1.0 6.0 0.00 0.00 0.00 68 1007.8
20210928060535 60 227 2.0 6.0 0.00 0.00 0.00 68 1007.7
20210928060034 60 211 3.0 6.0 0.00 0.00 0.00 68 1007.8
20210928055532 60 223 3.0 6.0 0.00 0.00 0.00 69 1007.8
20210928055034 60 214 2.0 5.0 0.00 0.00 0.00 69 1007.9
20210928054532 60 223 2.0 8.0 0.00 0.00 0.00 69 1007.8
20210928054034 61 223 2.0 8.0 0.00 0.00 0.00 69 1007.8
20210928053539 61 225 3.0 8.0 0.00 0.00 0.00 69 1007.9
20210928053030 61 194 4.0 8.0 0.00 0.00 0.00 68 1007.8
20210928052533 61 203 4.0 8.0 0.00 0.00 0.00 68 1007.8
20210928052032 61 208 3.0 8.0 0.00 0.00 0.00 68 1007.7
20210928051532 61 217 2.0 6.0 0.00 0.00 0.00 68 1007.7
20210928051031 61 215 3.0 8.0 0.00 0.00 0.00 68 1007.8
20210928050530 61 209 3.0 8.0 0.00 0.00 0.00 68 1007.7
20210928050028 61 198 4.0 9.0 0.00 0.00 0.00 68 1007.6
20210928045530 62 182 3.0 9.0 0.00 0.00 0.00 67 1007.7
20210928045028 62 207 3.0 6.0 0.00 0.00 0.00 67 1007.6
20210928044530 62 205 2.0 5.0 0.00 0.00 0.00 67 1007.6
20210928044028 62 223 1.0 4.0 0.00 0.00 0.00 67 1007.5
20210928043528 62 226 2.0 9.0 0.00 0.00 0.00 67 1007.5
20210928043028 63 236 2.0 9.0 0.00 0.00 0.00 67 1007.3
20210928042529 63 246 2.0 9.0 0.00 0.00 0.00 67 1007.5
20210928042029 63 250 2.0 9.0 0.00 0.00 0.00 67 1007.6
20210928041529 63 219 2.0 7.0 0.00 0.00 0.00 67 1007.7
20210928041028 63 216 2.0 7.0 0.00 0.00 0.00 67 1007.9
20210928040526 62 244 3.0 6.0 0.00 0.00 0.00 67 1007.9
20210928040026 62 232 3.0 6.0 0.00 0.00 0.00 67 1008.0
20210928035522 62 210 2.0 5.0 0.00 0.00 0.00 67 1008.0
20210928035022 62 231 2.0 5.0 0.00 0.00 0.00 67 1007.9
20210928034527 62 252 2.0 5.0 0.00 0.00 0.00 67 1008.0
20210928034020 63 240 2.0 5.0 0.00 0.00 0.00 67 1008.0
20210928033524 63 205 2.0 5.0 0.00 0.00 0.00 66 1007.9
20210928033021 63 238 2.0 7.0 0.00 0.00 0.00 66 1007.9
20210928032521 63 254 2.0 7.0 0.00 0.00 0.00 66 1007.8
20210928032021 63 234 3.0 7.0 0.00 0.00 0.00 66 1007.8
20210928031520 63 233 3.0 9.0 0.00 0.00 0.00 66 1007.9
20210928031026 63 256 4.0 9.0 0.00 0.00 0.00 66 1007.8
20210928030521 63 213 4.0 10.0 0.00 0.00 0.00 66 1007.8
20210928030025 63 227 4.0 10.0 0.00 0.00 0.00 66 1007.8
20210928025521 63 213 4.0 10.0 0.00 0.00 0.00 66 1007.8
20210928025018 63 211 5.0 10.0 0.00 0.00 0.00 66 1007.9
20210928024520 63 193 4.0 10.0 0.00 0.00 0.00 66 1008.0
20210928024020 63 205 4.0 10.0 0.00 0.00 0.00 66 1008.0
20210928023518 63 235 4.0 9.0 0.00 0.00 0.00 66 1008.0
20210928023019 63 212 4.0 9.0 0.00 0.00 0.00 66 1008.0
20210928022518 63 199 4.0 9.0 0.00 0.00 0.00 66 1008.0
20210928022019 63 150 4.0 11.0 0.00 0.00 0.00 66 1007.9
20210928021518 63 228 4.0 11.0 0.00 0.00 0.00 66 1008.0
20210928021019 63 217 4.0 11.0 0.00 0.00 0.00 66 1007.9
20210928020518 63 238 4.0 11.0 0.00 0.00 0.00 66 1007.9
20210928020018 63 195 4.0 11.0 0.00 0.00 0.00 66 1007.9
20210928015517 63 249 4.0 11.0 0.00 0.00 0.00 66 1007.9
20210928015016 63 271 4.0 11.0 0.00 0.00 0.00 66 1007.9
20210928014516 63 266 4.0 11.0 0.00 0.00 0.00 66 1007.9
20210928014016 63 241 4.0 11.0 0.00 0.00 0.00 66 1008.0
20210928013516 63 236 4.0 11.0 0.00 0.00 0.00 66 1008.1
20210928013016 63 233 4.0 11.0 0.00 0.00 0.00 67 1008.0
20210928012516 63 246 4.0 11.0 0.00 0.00 0.00 67 1008.0
20210928012016 63 217 3.0 11.0 0.00 0.00 0.00 67 1007.9
20210928011517 63 280 4.0 11.0 0.00 0.00 0.00 67 1008.0
20210928011016 63 274 5.0 11.0 0.00 0.00 0.00 67 1008.1
20210928010518 63 267 5.0 13.0 0.00 0.00 0.00 67 1008.0
20210928010014 62 208 4.0 13.0 0.00 0.00 0.00 68 1008.1
20210928005516 62 242 4.0 13.0 0.00 0.00 0.00 68 1008.0
20210928005014 62 202 4.0 13.0 0.00 0.00 0.00 68 1008.1
20210928004514 62 252 3.0 9.0 0.00 0.00 0.00 68 1008.1
20210928004014 61 223 3.0 8.0 0.00 0.00 0.00 68 1008.0
20210928003515 61 236 2.0 7.0 0.00 0.00 0.00 68 1008.0
20210928003013 61 202 2.0 7.0 0.00 0.00 0.00 68 1007.9
20210928002512 61 214 2.0 5.0 0.00 0.00 0.00 68 1008.0
20210928002010 61 221 2.0 7.0 0.00 0.00 0.00 68 1008.0
20210928001512 61 205 2.0 7.0 0.00 0.00 0.00 68 1008.1
20210928001010 61 246 2.0 7.0 0.00 0.00 0.00 68 1008.1
20210928000508 61 249 2.0 7.0 0.00 0.00 0.00 68 1008.2
20210928000009 61 220 2.0 6.0 0.00 0.00 0.00 69 1008.3
20210927235512 61 235 2.0 6.0 0.00 0.00 0.00 68 1008.3
20210927235006 61 213 2.0 6.0 0.00 0.00 0.00 68 1008.3
20210927234507 61 221 3.0 6.0 0.00 0.00 0.00 68 1008.3
20210927234006 61 202 2.0 9.0 0.00 0.00 0.00 68 1008.3
20210927233503 61 219 3.0 9.0 0.00 0.00 0.00 69 1008.3
20210927233008 61 197 3.0 9.0 0.00 0.00 0.00 69 1008.3
20210927232505 61 217 3.0 10.0 0.00 0.00 0.00 69 1008.2
20210927232010 61 190 3.0 10.0 0.00 0.00 0.00 68 1008.2
20210927231506 61 218 3.0 11.0 0.00 0.00 0.00 68 1008.1
20210927231003 61 202 3.0 11.0 0.00 0.00 0.00 68 1008.1
20210927230505 61 192 3.0 11.0 0.00 0.00 0.00 68 1008.0
20210927230004 61 192 4.0 11.0 0.00 0.00 0.00 68 1008.0
20210927225504 61 225 4.0 11.0 0.00 0.00 0.00 68 1008.1
20210927225010 61 219 4.0 11.0 0.00 0.00 0.00 68 1008.1
20210927224504 61 198 3.0 9.0 0.00 0.00 0.00 68 1008.1
20210927224005 61 212 3.0 14.0 0.00 0.00 0.00 68 1008.2
20210927223501 61 229 4.0 14.0 0.00 0.00 0.00 68 1008.2
20210927223003 61 200 5.0 16.0 0.00 0.00 0.00 68 1008.2
20210927222502 61 192 5.0 16.0 0.00 0.00 0.00 68 1008.0
20210927222003 61 190 5.0 12.0 0.00 0.00 0.00 68 1008.1
20210927221502 61 178 5.0 13.0 0.00 0.00 0.00 68 1008.1
20210927221003 61 192 6.0 14.0 0.00 0.00 0.00 68 1008.1
20210927220502 61 185 5.0 14.0 0.00 0.00 0.00 68 1008.1
20210927220001 61 177 4.0 11.0 0.00 0.00 0.00 68 1008.0
20210927215501 61 197 5.0 15.0 0.00 0.00 0.00 68 1008.0
20210927215002 61 211 5.0 15.0 0.00 0.00 0.00 68 1008.0
20210927214459 61 200 6.0 15.0 0.00 0.00 0.00 68 1008.1
20210927214000 61 182 7.0 15.0 0.00 0.00 0.00 68 1008.1
20210927213500 61 195 7.0 14.0 0.00 0.00 0.00 68 1008.2
20210927213004 62 205 8.0 15.0 0.00 0.00 0.00 68 1008.2
20210927212502 62 207 9.0 15.0 0.00 0.00 0.00 68 1008.1
20210927212001 62 200 9.0 16.0 0.00 0.00 0.00 68 1008.2
20210927211500 62 188 7.0 16.0 0.00 0.00 0.00 68 1008.1
20210927211005 62 201 7.0 15.0 0.00 0.00 0.00 68 1008.1
20210927210459 62 190 7.0 15.0 0.00 0.00 0.00 68 1008.1
20210927210001 62 283 7.0 17.0 0.00 0.00 0.00 68 1008.3
20210927205500 62 196 6.0 17.0 0.00 0.00 0.00 67 1008.4
20210927205000 62 213 6.0 14.0 0.00 0.00 0.00 67 1008.3
20210927204500 62 184 6.0 14.0 0.00 0.00 0.00 67 1008.2
20210927204006 62 202 7.0 15.0 0.00 0.00 0.00 67 1008.3
20210927203504 63 192 6.0 15.0 0.00 0.00 0.00 66 1008.2
20210927203001 63 200 7.0 16.0 0.00 0.00 0.00 66 1008.3
20210927202504 64 173 8.0 16.0 0.00 0.00 0.00 65 1008.3
20210927202001 64 203 8.0 18.0 0.00 0.00 0.00 64 1008.5
20210927201501 64 187 8.0 18.0 0.00 0.00 0.00 64 1008.5
20210927201006 65 182 8.0 19.0 0.00 0.00 0.00 64 1008.5
20210927200500 65 199 10.0 21.0 0.00 0.00 0.00 65 1008.6
20210927200002 64 200 10.0 21.0 0.00 0.00 0.00 63 1008.5
20210927195504 64 202 9.0 20.0 0.00 0.00 0.00 64 1008.5
20210927194959 64 166 9.0 24.0 0.00 0.00 0.00 64 1008.5
20210927194500 64 219 10.0 24.0 0.00 0.00 0.00 64 1008.3
20210927194000 64 186 9.0 19.0 0.00 0.00 0.00 63 1008.5
20210927193459 65 226 9.0 19.0 0.00 0.00 0.00 63 1008.5
20210927193001 65 167 8.0 18.0 0.00 0.00 0.00 62 1008.5
20210927192502 65 215 8.0 19.0 0.00 0.00 0.00 62 1008.6
20210927192006 64 153 9.0 19.0 0.00 0.00 0.00 64 1008.6
20210927191503 64 137 10.0 20.0 0.00 0.00 0.00 63 1008.7
20210927191006 64 168 9.0 20.0 0.00 0.00 0.00 63 1008.7
20210927190500 65 184 8.0 17.0 0.00 0.00 0.00 63 1008.7
20210927185959 65 195 6.0 13.0 0.00 0.00 0.00 63 1008.9
20210927185500 64 176 7.0 19.0 0.00 0.00 0.00 64 1008.9
20210927185001 64 207 8.0 19.0 0.00 0.00 0.00 64 1009.0
20210927184459 65 162 10.0 18.0 0.00 0.00 0.00 62 1009.0
20210927184005 65 205 9.0 18.0 0.00 0.00 0.00 62 1009.3
20210927183500 65 179 7.0 17.0 0.00 0.00 0.00 62 1009.3
20210927183000 65 184 8.0 17.0 0.00 0.00 0.00 61 1009.3
20210927182505 65 210 9.0 19.0 0.00 0.00 0.00 61 1009.2
20210927181957 65 208 10.0 19.0 0.00 0.00 0.00 60 1009.2
20210927181459 66 186 8.0 18.0 0.00 0.00 0.00 59 1009.4
20210927180958 66 205 7.0 16.0 0.00 0.00 0.00 58 1009.5
20210927180457 67 227 7.0 16.0 0.00 0.00 0.00 58 1009.6
20210927175958 66 265 7.0 16.0 0.00 0.00 0.00 59 1009.6
20210927175455 66 205 8.0 20.0 0.00 0.00 0.00 59 1009.7
20210927174956 66 195 8.0 20.0 0.00 0.00 0.00 59 1009.7
20210927174455 66 161 10.0 20.0 0.00 0.00 0.00 58 1009.9
20210927173955 66 166 10.0 20.0 0.00 0.00 0.00 57 1009.9
20210927173456 67 223 9.0 16.0 0.00 0.00 0.00 57 1009.8
20210927172953 67 169 9.0 16.0 0.00 0.00 0.00 54 1009.9
20210927172455 67 214 9.0 17.0 0.00 0.00 0.00 54 1009.8
20210927171953 67 191 8.0 17.0 0.00 0.00 0.00 52 1009.9
20210927171453 68 162 7.0 14.0 0.00 0.00 0.00 53 1010.1
20210927171000 68 206 6.0 17.0 0.00 0.00 0.00 51 1010.1
20210927170453 68 200 5.0 17.0 0.00 0.00 0.00 51 1010.1
20210927165953 67 178 7.0 16.0 0.00 0.00 0.00 51 1010.2
20210927165454 67 284 8.0 17.0 0.00 0.00 0.00 51 1010.2
20210927164954 67 252 7.0 17.0 0.00 0.00 0.00 51 1010.5
20210927164457 67 196 7.0 17.0 0.00 0.00 0.00 53 1010.5
20210927163951 67 206 7.0 17.0 0.00 0.01 0.00 54 1010.5
20210927163453 67 240 6.0 14.0 0.00 0.01 0.00 53 1010.6
20210927162951 67 214 6.0 14.0 0.00 0.01 0.00 56 1010.6
20210927162451 67 172 6.0 14.0 0.00 0.01 0.00 56 1010.7
20210927161953 67 238 6.0 13.0 0.00 0.01 0.00 59 1010.6
20210927161452 67 201 6.0 13.0 0.00 0.01 0.00 62 1010.6
20210927160952 66 217 6.0 13.0 0.00 0.01 0.00 60 1010.7
20210927160452 66 163 7.0 16.0 0.00 0.02 0.00 62 1010.7
20210927155950 65 204 7.0 16.0 0.00 0.02 0.00 60 1010.8
20210927155451 65 224 8.0 15.0 0.00 0.03 0.00 61 1010.7
20210927154949 65 202 8.0 15.0 0.00 0.04 0.00 60 1010.7
20210927154449 66 162 8.0 14.0 0.00 0.05 0.00 60 1010.8
20210927153950 66 212 7.0 15.0 0.00 0.06 0.00 61 1010.8
20210927153449 66 167 6.0 15.0 0.00 0.07 0.00 59 1011.0
20210927152949 66 208 6.0 16.0 0.00 0.08 0.00 60 1011.0
20210927152450 65 207 6.0 16.0 0.00 0.09 0.00 61 1010.9
20210927151949 65 209 6.0 15.0 0.00 0.11 0.00 61 1011.1
20210927151450 65 211 7.0 15.0 0.00 0.12 0.00 60 1011.3
20210927150947 65 223 7.0 15.0 0.00 0.14 0.00 59 1011.3
20210927150448 65 223 5.0 12.0 0.00 0.17 0.00 58 1011.3
20210927145947 65 269 5.0 11.0 0.00 0.20 0.00 58 1011.5
20210927145449 64 192 5.0 11.0 0.00 0.22 0.00 57 1011.6
20210927144950 64 225 5.0 11.0 0.00 0.23 0.00 55 1011.8
20210927144449 64 202 5.0 12.0 0.00 0.30 0.00 56 1011.7
20210927143948 64 205 5.0 14.0 0.00 0.33 0.00 54 1011.9
20210927143447 64 261 5.0 14.0 0.00 0.46 0.00 55 1011.8
20210927142948 64 287 5.0 14.0 0.00 0.55 0.00 54 1011.9
20210927142448 64 258 4.0 14.0 0.00 0.56 0.00 54 1011.7
20210927141948 64 276 4.0 10.0 0.00 0.58 0.00 56 1011.8
20210927141447 64 276 4.0 10.0 0.00 0.58 0.00 56 1011.7
20210927140945 63 232 4.0 11.0 0.00 0.58 0.00 54 1011.8
20210927140445 63 195 4.0 11.0 0.00 0.58 0.00 56 1011.7
20210927135947 63 207 3.0 8.0 0.00 0.58 0.00 56 1011.7
20210927135445 63 251 4.0 7.0 0.00 0.58 0.00 58 1011.6
20210927134945 63 209 3.0 7.0 0.00 0.58 0.00 59 1011.6
20210927134449 63 269 3.0 9.0 0.00 0.58 0.00 61 1011.5
20210927133945 62 199 3.0 9.0 0.00 0.58 0.00 62 1011.6
20210927133445 62 255 4.0 9.0 0.00 0.59 0.00 63 1011.6
20210927132951 62 253 5.0 10.0 0.00 0.59 0.00 63 1011.8
20210927132445 62 263 4.0 10.0 0.00 0.59 0.00 65 1011.8
20210927131946 61 263 4.0 10.0 0.00 0.59 0.00 66 1011.7
20210927131446 61 227 5.0 10.0 0.00 0.59 0.00 65 1011.8
20210927130944 61 120 4.0 10.0 0.00 0.59 0.00 66 1011.8
20210927130446 61 240 4.0 9.0 0.00 0.59 0.00 65 1011.7
20210927125943 60 231 3.0 9.0 0.00 0.59 0.00 66 1011.8
20210927125442 60 244 3.0 9.0 0.00 0.59 0.00 65 1011.8
20210927124942 60 265 3.0 9.0 0.00 0.59 0.00 66 1011.7
20210927124443 60 243 2.0 7.0 0.00 0.59 0.00 67 1011.8
20210927123942 59 259 2.0 7.0 0.00 0.59 0.00 68 1011.7
20210927123442 58 238 2.0 7.0 0.00 0.59 0.00 69 1011.7
20210927122940 58 267 2.0 7.0 0.00 0.59 0.00 69 1011.7
20210927122441 58 265 2.0 7.0 0.00 0.59 0.00 69 1011.5
20210927121945 58 297 2.0 7.0 0.00 0.59 0.00 70 1011.4
20210927121439 57 276 2.0 7.0 0.00 0.59 0.00 70 1011.4
20210927120945 57 284 2.0 7.0 0.00 0.59 0.00 70 1011.5
20210927120439 57 275 3.0 6.0 0.00 0.59 0.00 70 1011.5
20210927115940 56 252 2.0 6.0 0.00 0.59 0.00 71 1011.4
20210927115437 56 222 2.0 7.0 0.00 0.59 0.00 71 1011.4
20210927114942 55 238 2.0 7.0 0.00 0.59 0.00 72 1011.4
20210927114435 54 275 2.0 7.0 0.00 0.59 0.00 72 1011.3
20210927113936 54 257 3.0 7.0 0.00 0.59 0.00 73 1011.2
20210927113435 53 255 2.0 4.0 0.00 0.59 0.00 73 1011.2
20210927112936 53 276 2.0 4.0 0.00 0.59 0.00 73 1011.3
20210927112435 53 280 2.0 4.0 0.00 0.59 0.00 73 1011.1
20210927111939 52 282 2.0 4.0 0.00 0.59 0.00 73 1011.1
20210927111435 52 277 2.0 4.0 0.00 0.59 0.00 72 1011.1
20210927110934 53 298 2.0 5.0 0.00 0.59 0.00 72 1011.0
20210927110441 53 267 2.0 5.0 0.00 0.59 0.00 72 1011.0
20210927105932 53 272 2.0 6.0 0.00 0.59 0.00 72 1010.9
20210927105433 53 281 2.0 6.0 0.00 0.59 0.00 72 1011.0
20210927104931 52 259 3.0 6.0 0.00 0.59 0.00 72 1010.9
20210927104432 52 269 3.0 6.0 0.00 0.59 0.00 72 1010.8
20210927103930 52 262 3.0 8.0 0.00 0.59 0.00 72 1010.7
20210927103429 52 260 3.0 8.0 0.00 0.59 0.00 72 1010.6
20210927102930 52 257 3.0 8.0 0.00 0.59 0.00 72 1010.5
20210927102429 52 244 4.0 8.0 0.00 0.59 0.00 72 1010.5
20210927101930 52 266 4.0 7.0 0.00 0.59 0.00 72 1010.4
20210927101430 52 257 3.0 7.0 0.00 0.59 0.00 72 1010.4
20210927100929 52 275 3.0 7.0 0.00 0.59 0.00 72 1010.3
20210927100428 52 275 3.0 7.0 0.00 0.59 0.00 73 1010.3
20210927095929 52 281 3.0 7.0 0.00 0.59 0.00 73 1010.4
20210927095430 52 275 3.0 7.0 0.00 0.59 0.00 73 1010.3
20210927094929 52 277 2.0 7.0 0.00 0.59 0.00 73 1010.3
20210927094430 52 317 3.0 6.0 0.00 0.59 0.00 73 1010.2
20210927093929 52 276 3.0 8.0 0.00 0.59 0.00 73 1010.1
20210927093430 52 289 3.0 8.0 0.00 0.59 0.00 73 1010.2
20210927092929 52 282 3.0 8.0 0.00 0.59 0.00 73 1010.1
20210927092428 52 305 4.0 8.0 0.00 0.59 0.00 72 1010.2
20210927091928 52 279 3.0 8.0 0.00 0.59 0.00 72 1010.1
20210927091429 53 294 2.0 6.0 0.00 0.60 0.00 72 1010.1
20210927090930 53 282 2.0 10.0 0.00 0.69 0.00 72 1010.1
20210927090436 53 300 3.0 10.0 0.00 0.70 0.00 72 1010.0
20210927085929 53 284 4.0 10.0 0.00 0.70 0.00 73 1010.1
20210927085429 53 266 4.0 10.0 0.00 0.70 0.00 73 1010.0
20210927084929 53 256 3.0 8.0 0.00 0.70 0.00 73 1010.1
20210927084428 52 290 3.0 9.0 0.00 0.70 0.00 73 1009.9
20210927083929 52 302 3.0 9.0 0.00 0.70 0.00 73 1010.0
20210927083430 52 281 4.0 9.0 0.00 0.70 0.00 73 1009.9
20210927082928 52 286 4.0 9.0 0.00 0.70 0.00 73 1009.9
20210927082435 52 302 3.0 9.0 0.00 0.70 0.00 73 1009.8
20210927081929 52 284 3.0 8.0 0.00 0.70 0.00 73 1009.8
20210927081430 52 302 3.0 8.0 0.00 0.70 0.00 73 1009.7
20210927080933 52 281 3.0 8.0 0.00 0.70 0.00 73 1009.8
20210927080431 52 294 3.0 8.0 0.00 0.70 0.00 73 1009.6
20210927075929 52 258 3.0 11.0 0.00 0.70 0.00 73 1009.7